Hourly Data Report for July 27, 2021

BORDEN AWOS
ONTARIO
Current Station Operator: DND

44°16'20.000" N
79°54'42.000" W
222.50 m
611B002
71534
YBN

Download Data

Hourly Data (July 2021)
Hourly Data Report for July 27, 2021
TIME
LST
Temp Definition
°C
Dew Point Definition
°C
Rel Hum Definition
%
Precip. Amount Definition
mm

Wind Dir Definition
10's deg

Wind Spd Definition
km/h
Visibility Definition
km
Stn Press Definition
kPa
Hmdx Definition


Wind Chill Definition


Weather Definition


00:00 14.7 14.1 96   18 4 14.5 98.79     LegendNANA
01:00 13.2 13.0 99   22 6 12.9 98.81     LegendNANA
02:00 14.1 13.6 97     0 14.5 98.84     LegendNANA
03:00 12.5 12.2 98     0 14.5 98.78     LegendNANA
04:00
05:00 13.4 12.8 96   17 6 14.5 98.69     LegendNANA
06:00 15.6 15.1 97     0 14.5 98.68     LegendNANA
07:00 17.8 14.5 81   31 9 14.5 98.83     Rain
08:00 17.2 15.4 89   30 4 4.8 98.97     Moderate Rain
09:00 17.2 16.7 97   12 17 8.0 98.75     Rain
10:00
11:00 18.9 18.1 95   35 6 14.5 98.82     Rain
12:00 20.0 18.1 89     0 14.5 98.80 26   LegendNANA
13:00
14:00 23.1 17.5 71   34 19 14.5 98.85 29   LegendNANA
15:00 23.2 16.8 67   33 19 14.5 98.84 28   LegendNANA
16:00 23.2 16.4 66   32 15 14.5 98.85 28   LegendNANA
17:00 23.2 15.8 63   33 11 14.5 98.87 28   LegendNANA
18:00 21.9 16.9 73   32 11 14.5 98.91 27   LegendNANA
19:00 20.2 16.7 80   32 9 14.5 98.94 25   LegendNANA
20:00 18.5 16.2 87   34 9 14.5 98.96     LegendNANA
21:00 15.8 15.2 96     0 14.5 99.02     LegendNANA
22:00 14.7 14.3 97   32 4 9.7 99.04     LegendNANA
23:00 13.6 13.2 97     0 12.9 99.07     LegendNANA

Notes on Data Quality.

Legend

  • E = Estimated
  • M = Missing
  • NA = Not Available*
  • [empty] = Indicates an unobserved value
Date modified: